RH
44 41 47 52 60 65 65 70 80 75 71 79 70 60 62 56 53 52 49 48 51 50 49 53 52 50 47 42 37 37 38 32 31 31 31 28 24 24 23 23 23 25 23
52 45 47 51 54 60 60 61 69 74 69 67 65 63 58 57 56 59 50 50 50 53 48 51 50 43 43 39 38 38 39 35 30 32 29 29 27 27 24 24 23 24 23
64 46 44 52 52 54 57 55 64 74 77 74 74 70 61 58 58 56 56 57 49 48 47 48 47 41 37 40 38 38 42 38 39 30 31 29 26 29 28 27 23 23 25
65 67 54 51 51 50 51 54 63 74 78 79 80 78 75 63 60 57 55 56 48 50 44 48 42 39 37 36 34 31 31 34 37 39 32 40 27 27 30 29 28 24 21
69 75 81 76 52 52 52 54 59 68 78 84 87 90 88 86 83 75 50 49 43 43 41 40 42 41 39 36 34 34 34 29 34 34 38 35 32 27 26 30 33 28 25
63 67 70 80 86 58 56 60 65 68 76 83 88 92 95 94 81 84 64 56 49 40 40 41 43 42 42 40 39 37 36 35 35 34 33 34 30 31 31 30 34 30 28
69 71 75 81 87 90 76 63 68 88 83 93 98 99 98 98 94 83 62 57 55 47 40 38 41 40 41 41 40 40 44 43 41 35 34 35 34 31 28 30 32 29 30
70 81 88 90 92 90 94 95 94 95 96 97 97 97 99 96 96 92 90 56 56 53 45 37 34 37 39 39 38 41 41 43 42 39 37 37 36 34 30 30 33 31 28
83 88 88 91 93 95 95 95 94 95 95 94 89 93 90 82 82 90 91 73 65 49 46 41 37 36 36 37 40 39 36 35 35 35 36 36 36 35 33 31 27 27 30
86 90 93 93 93 94 96 96 96 96 96 95 93 89 81 76 77 80 60 58 69 56 42 39 37 37 36 34 34 35 35 35 36 35 36 37 36 36 36 36 33 30 28
89 88 92 94 94 93 94 95 95 95 93 91 91 91 89 79 70 64 57 54 50 47 46 41 38 37 36 33 34 34 34 34 34 34 35 36 35 38 36 37 36 35 31
89 90 88 92 94 94 93 94 94 94 95 95 94 93 92 90 83 81 69 59 54 50 46 44 43 41 38 34 34 33 33 34 35 35 35 36 30 34 34 34 35 35 33
81 83 83 89 92 94 94 94 93 94 94 94 94 93 93 93 93 93 89 87 65 53 51 48 47 45 44 41 38 37 35 34 34 33 33 34 33 34 36 34 34 34 31
76 76 78 81 82 88 92 93 94 94 94 93 92 92 92 92 92 91 92 93 92 90 86 65 51 49 46 42 39 38 38 37 36 36 33 33 32 31 33 33 32 32 34
73 75 78 79 79 84 85 87 88 90 91 92 91 93 92 91 92 92 92 91 90 91 92 91 91 87 76 58 48 42 40 39 37 38 35 35 36 40 36 36 43 44 42
75 75 73 74 77 79 84 81 82 84 83 86 90 89 89 91 91 90 91 91 92 92 91 90 90 89 85 90 93 83 74 64 55 48 40 35 46 50 53 54 50 49 74
80 77 76 79 80 78 82 85 80 75 79 82 83 86 85 84 88 88 88 88 88 88 90 90 90 91 90 90 91 93 82 71 67 59 51 48 43 54 52 62 66 70 74
81 80 79 80 76 76 77 86 80 79 80 80 82 86 87 86 83 85 83 85 86 85 82 82 85 88 85 88 90 90 94 95 91 87 86 87 86 82 84 80 69 60 53
85 86 86 86 86 85 80 86 81 80 79 76 80 80 81 85 83 83 82 77 84 82 81 77 78 78 73 79 88 90 89 86 83 84 82 74 83 79 80 88 84 64 55
83 87 82 85 82 80 81 84 84 84 80 78 81 83 82 87 86 78 80 79 73 67 57 68 72 78 80 77 82 85 85 89 78 65 57 68 63 68 70 76 89 90 68
73 74 79 87 86 85 85 86 84 88 82 82 83 84 84 86 86 82 78 80 81 73 73 64 56 51 52 53 66 76 82 79 73 64 61 56 65 66 76 83 92 91 68
59 56 66 70 68 69 75 84 84 84 83 85 86 86 86 85 82 84 83 80 82 82 81 81 75 58 52 62 62 62 64 71 83 77 55 51 62 64 66 67 77 75 79
53 52 61 65 59 60 68 79 75 78 80 80 86 87 83 84 83 85 84 84 81 83 81 78 77 71 56 50 66 66 62 60 52 52 61 66 63 63 61 65 70 73 70
51 49 51 54 57 54 57 66 66 68 74 82 82 82 84 82 79 71 70 73 76 78 79 79 79 78 75 66 53 46 48 57 52 53 50 57 60 61 59 59 59 81 70
50 50 53 56 55 50 54 53 54 58 71 77 81 80 72 77 77 76 77 80 78 84 85 79 79 81 82 78 69 63 58 58 56 57 56 52 48 43 40 38 35 38 42
60 65 61 58 56 58 64 65 63 69 80 82 72 68 66 67 66 68 68 68 74 71 69 74 92 82 75 70 71 64 60 66 84 85 77 71 60 51 48 45 43 41 45
Wind_Speed
18 18 9 7 10 11 10 11 10 8 8 8 6 4 5 4 4 2 6 6 5 8 7 7 10 9 10 11 13 11 13 11 13 10 11 9 9 9 7 7 8 9 8
22 16 11 6 9 10 10 9 9 8 5 4 3 3 4 3 4 3 4 5 6 7 7 9 9 12 10 12 13 15 12 11 9 6 8 6 4 6 6 6 6 8 6
24 18 8 4 5 6 9 8 9 9 6 6 6 5 5 5 4 3 3 3 6 7 7 8 9 12 11 11 13 13 13 10 6 11 3 6 5 8 3 5 4 6 5
22 23 19 9 5 5 5 6 9 10 8 7 6 6 1 3 2 3 4 4 6 5 6 9 10 13 10 13 12 12 10 10 11 5 1 3 9 5 7 4 4 4 5
20 21 21 16 13 8 3 3 6 8 9 8 7 5 7 5 5 5 2 4 5 6 9 11 11 11 9 11 12 12 9 9 8 5 5 5 5 4 5 8 7 4 3
21 20 19 18 13 12 9 6 7 8 8 7 7 8 8 6 5 4 4 4 1 4 6 9 10 10 10 12 10 10 10 8 8 5 5 6 4 7 4 6 11 8 6
20 21 21 19 18 17 12 9 9 8 8 7 6 6 7 7 7 3 5 4 1 2 3 6 8 8 9 10 10 9 8 7 7 7 5 3 3 4 4 7 9 6 5
20 20 20 18 17 19 17 11 10 10 8 7 5 5 5 3 4 3 2 3 2 3 2 4 6 8 9 8 8 6 6 7 6 7 5 5 5 4 4 6 9 8 4
19 20 20 19 17 17 17 15 14 11 11 10 9 8 7 5 5 5 5 2 3 6 5 5 6 7 8 8 8 6 7 7 7 7 7 6 5 4 4 5 5 6 7
18 18 16 17 17 16 14 15 14 13 12 12 10 9 9 7 5 4 4 5 6 5 7 7 6 7 8 8 8 7 7 8 6 6 7 7 5 5 4 5 4 3 3
15 16 15 15 16 16 17 16 14 14 14 12 11 10 9 9 9 7 6 6 7 6 7 6 6 7 7 7 7 7 7 7 7 7 7 8 7 5 5 4 4 4 3
13 13 15 15 15 15 15 16 15 15 13 10 10 11 10 9 9 9 9 8 8 7 7 7 7 7 7 7 7 7 7 7 7 6 6 7 5 6 5 3 4 4 2
13 13 14 14 14 14 14 14 15 14 14 13 12 10 10 9 9 8 7 8 8 8 7 7 7 6 7 7 6 6 6 6 5 5 5 5 5 5 4 4 4 4 3
12 12 12 13 12 13 13 13 13 13 12 12 12 12 12 10 7 7 7 6 5 6 6 6 6 6 6 6 6 6 6 5 5 4 5 5 5 6 6 5 5 5 5
11 11 11 11 12 11 12 11 12 11 12 11 10 10 9 9 9 9 6 4 4 3 3 4 5 5 5 4 5 5 6 6 6 6 7 7 8 10 9 6 6 6 7
10 9 10 10 10 10 10 10 11 11 11 10 10 9 9 8 7 6 6 6 5 2 1 0 2 4 4 9 13 10 9 10 10 9 9 9 12 13 15 15 13 11 8
8 9 9 8 6 7 8 8 8 9 9 9 9 9 8 8 7 7 5 4 3 3 2 2 1 3 4 9 11 13 9 9 10 11 10 10 8 12 10 14 18 19 21
9 10 8 7 8 6 6 5 5 6 7 8 8 9 9 10 9 8 7 6 5 4 4 4 4 4 4 9 12 13 8 6 10 12 12 11 10 11 11 11 12 14 14
8 8 7 6 5 6 5 5 5 5 6 6 7 8 8 8 8 7 7 7 6 6 5 5 6 7 6 10 12 11 7 7 6 5 8 10 10 14 18 13 14 15 14
7 7 8 7 8 6 5 6 6 5 6 6 6 6 7 7 7 8 8 7 7 8 7 8 8 10 8 12 13 12 6 7 7 10 13 19 18 20 21 15 12 14 13
8 9 8 7 7 6 4 7 7 6 6 5 6 6 6 7 7 8 7 8 8 9 9 9 9 10 10 10 15 16 9 8 8 8 9 9 19 21 22 23 13 13 14
10 10 9 10 9 8 7 9 9 7 5 5 6 7 7 6 7 8 8 8 8 9 10 10 10 9 10 15 17 20 20 17 11 11 10 11 19 21 22 20 22 25 22
11 10 10 11 10 8 7 9 10 8 7 7 8 8 8 8 8 8 9 7 8 8 8 8 9 9 8 9 17 20 22 23 16 11 14 21 22 25 22 27 28 27 13
11 11 12 12 12 9 9 10 11 10 9 10 10 9 8 9 9 7 7 8 8 8 8 8 9 9 9 9 9 9 10 15 14 15 12 14 18 21 19 17 14 6 6
12 11 12 12 13 11 11 10 10 10 11 10 9 10 9 9 9 8 8 7 9 9 8 9 9 9 9 11 15 12 8 9 11 11 9 9 10 10 10 9 10 10 11
12 11 12 12 13 12 12 11 9 9 9 10 9 8 8 8 8 8 8 13 17 19 21 22 17 12 22 22 20 21 22 23 26 12 11 11 11 11 9 9 8 7 9
Wind_Direction
343 337 305 234 213 197 173 164 155 166 150 147 142 144 151 141 123 129 137 136 139 144 148 145 144 145 146 151 149 140 131 128 130 115 96 87 82 82 82 87 90 87 85
350 331 318 264 225 205 190 168 156 157 170 158 96 102 137 118 115 121 122 136 145 142 155 151 157 156 147 151 156 150 140 142 164 132 116 135 116 83 79 88 92 92 96
356 355 325 276 249 219 205 180 147 137 112 85 85 81 73 81 107 136 127 163 150 164 156 163 158 159 162 162 163 163 153 154 167 171 124 153 153 139 122 96 99 102 101
4 4 4 355 315 261 229 182 147 133 121 114 106 135 68 134 42 125 152 145 149 155 172 166 164 167 167 169 172 169 171 160 152 138 81 42 124 162 156 173 133 120 102
11 9 7 3 7 357 323 173 120 119 123 118 127 105 88 78 63 57 62 114 149 157 167 167 165 162 164 169 171 175 173 173 157 154 146 119 113 127 149 158 164 152 126
15 14 13 13 10 16 29 46 86 91 103 106 104 108 110 111 114 111 92 350 93 166 164 155 159 158 162 166 165 169 168 164 171 156 155 162 163 164 148 146 160 160 160
21 17 17 17 14 20 26 44 63 66 70 87 97 110 128 130 120 108 124 149 73 56 166 141 145 152 152 156 154 161 152 161 165 165 145 141 127 144 142 145 152 155 150
26 24 20 21 20 24 16 34 52 54 57 67 75 89 115 138 139 151 64 85 115 87 63 101 120 125 135 140 143 135 142 143 140 141 146 130 122 142 156 157 154 144 150
29 25 22 22 23 25 28 25 27 36 57 58 56 62 65 90 132 134 129 95 82 107 83 89 98 104 110 116 124 132 131 132 132 131 129 124 114 116 115 136 177 161 161
32 27 24 22 25 23 25 33 31 31 36 45 55 58 58 74 96 100 123 128 107 89 113 102 100 98 99 105 112 117 124 128 123 124 130 119 109 99 91 92 98 69 123
34 32 25 22 25 27 26 24 26 32 34 37 42 54 54 57 61 73 86 82 92 104 99 104 105 103 100 102 107 111 118 124 120 123 123 114 117 107 93 85 80 81 73
34 31 29 25 24 26 24 25 22 24 23 32 39 44 47 57 65 67 64 75 90 90 94 95 97 95 94 100 112 116 119 124 121 116 123 122 119 116 113 117 111 113 102
33 30 27 26 23 19 23 23 22 22 19 21 26 37 41 43 51 60 75 83 80 90 96 100 102 101 99 99 97 103 110 111 117 128 135 138 143 139 144 142 145 143 148
33 29 25 25 17 14 15 14 17 16 15 19 23 25 23 27 43 44 47 70 97 112 107 102 108 117 123 125 134 128 128 132 140 147 161 170 179 176 174 185 184 177 189
23 20 17 12 12 10 13 11 12 7 5 11 17 20 17 21 22 26 39 54 44 65 121 143 153 163 175 174 171 167 171 179 184 190 192 200 205 206 205 204 197 200 209
0 6 4 6 9 6 6 3 3 359 356 359 3 8 11 12 16 17 17 18 29 54 133 189 228 211 219 221 212 202 209 212 214 212 211 214 216 221 221 216 208 203 206
342 346 346 352 354 360 351 355 353 352 353 350 350 352 358 353 356 354 352 357 358 354 341 335 320 243 230 253 251 238 212 225 228 227 222 215 220 222 227 239 238 236 226
328 332 324 337 328 338 342 326 344 356 350 348 354 5 358 351 346 341 335 333 320 303 291 270 253 251 250 260 271 277 281 251 216 212 213 220 225 225 227 232 238 242 246
306 301 301 301 307 308 317 313 313 342 339 338 336 338 336 331 330 330 327 318 311 302 287 269 260 250 250 261 269 271 277 272 267 255 235 234 238 239 242 238 237 243 245
286 281 294 299 298 306 310 309 299 313 318 320 315 316 316 309 313 312 306 302 296 285 278 268 257 252 248 253 261 263 266 262 249 240 245 249 245 241 243 244 245 246 248
293 284 285 287 283 281 285 284 289 282 295 297 294 297 293 295 289 295 300 296 289 284 277 274 273 268 259 256 262 262 256 256 255 251 250 247 251 253 253 254 243 236 240
301 298 289 286 289 289 293 285 278 271 284 283 283 286 284 282 285 282 283 280 279 273 270 267 265 259 257 259 259 259 255 248 244 246 252 254 256 258 257 254 254 257 258
299 299 296 291 292 285 285 280 285 284 292 290 282 282 284 282 275 270 274 274 266 264 265 263 263 261 257 254 258 259 259 258 257 253 254 254 251 253 256 262 262 260 253
297 298 298 291 291 290 287 286 292 288 291 289 285 284 280 278 267 270 277 270 264 262 258 260 256 258 259 256 254 251 260 270 273 278 280 276 272 268 259 259 259 266 283
292 291 290 290 289 289 286 291 285 287 288 284 281 282 283 284 284 274 267 261 261 252 257 253 245 246 247 243 241 240 243 241 240 240 241 246 250 250 252 254 256 253 254
288 285 280 281 284 286 285 285 281 276 274 275 274 276 282 288 285 284 283 274 271 273 274 265 224 234 236 247 261 262 258 249 238 232 229 231 232 236 242 250 251 253 260